This demonstration page uses our WeatherBlox Daily Observations layout. Learn more.

Left ArrowRight Arrow

Hourly Observations for March 26, 2019

Temp ( °F °C ) Dew Point ( °F °C ) Humidity (%) Winds ( mph kmh ) Pressure ( in mb ) Visibility ( mi km ) Precip ( " mm )
12:57 am 00:57 Cloudy 41 5 39 3.9 93 93 S 9 15 30.33 1027 7 11 0.00 0.00
1:57 am 01:57 Mostly Cloudy 40 4.4 39 3.9 97 97 SSE 6 9 30.33 1027 7 11 0.00 0.00
2:57 am 02:57 Clear with Mist and Fog 37 2.8 37 2.8 100 100 SE 7 11 30.33 1027 5 8 0.00 0.00
3:57 am 03:57 Mostly Cloudy with Mist and Fog 37 2.8 36 2.2 96 96 SE 7 11 30.32 1027 4 6 0.00 0.00
4:57 am 04:57 Mostly Cloudy 38 3.3 37 2.8 97 97 S 12 19 30.29 1026 7 11 0.00 0.00
5:57 am 05:57 Clear 37 2.8 36 2.2 96 96 S 9 15 30.29 1026 8 13 0.00 0.00
6:57 am 06:57 Clear 36 2.2 35 1.7 97 97 SSW 8 13 30.29 1026 8 13 0.00 0.00
7:57 am 07:57 Sunny 38 3.3 36 2.2 93 93 SSW 8 13 30.29 1026 7 11 0.00 0.00
8:57 am 08:57 Sunny 40 4.4 38 3.3 93 93 SSW 9 15 30.30 1026 8 13 0.00 0.00
9:29 am 09:29 Partly Cloudy 41 5 39 4 93 93 SW 6 9 30.33 1027 10 16 0.00 0.00
9:43 am 09:43 Mostly Cloudy 43 6 39 4 87 87 SW 7 11 30.32 1027 10 16 0.00 0.00
9:57 am 09:57 Mostly Cloudy 43 6.1 39 3.9 86 86 WSW 9 15 30.30 1026 10 16 0.00 0.00
10:24 am 10:24 Mostly Sunny 43 6 39 4 87 87 SW 8 13 30.31 1026 10 16 0.00 0.00
10:57 am 10:57 Sunny 45 7.2 41 5 86 86 SW 7 11 30.29 1026 10 16 0.00 0.00
11:57 am 11:57 Sunny 51 10.6 44 6.7 77 77 SSW 10 17 30.28 1025 10 16 0.00 0.00
12:57 pm 12:57 Sunny 56 13.3 46 7.8 70 70 SSW 13 20 30.24 1024 10 16 0.00 0.00
1:57 pm 13:57 Sunny 62 16.7 46 7.8 56 56 SW 10 17 30.21 1023 10 16 0.00 0.00
2:57 pm 14:57 Sunny 63 17.2 45 7.2 52 52 SW 16 26 30.18 1022 10 16 0.00 0.00
3:57 pm 15:57 Sunny 66 18.9 44 6.7 45 45 SSW 22 35 30.14 1021 10 16 0.00 0.00
4:57 pm 16:57 Mostly Sunny 66 18.9 44 6.7 45 45 SSW 17 28 30.11 1020 10 16 0.00 0.00
5:57 pm 17:57 Sunny 65 18.3 42 5.6 43 43 SSW 18 30 30.10 1019 10 16 0.00 0.00
6:57 pm 18:57 Sunny 62 16.7 46 7.8 56 56 S 13 20 30.09 1019 10 16 0.00 0.00
7:57 pm 19:57 Clear 57 13.9 46 7.8 67 67 S 12 19 30.09 1019 10 16 0.00 0.00
8:57 pm 20:57 Clear 55 12.8 45 7.2 69 69 S 13 20 30.09 1019 10 16 0.00 0.00
9:57 pm 21:57 Clear 54 12.2 45 7.2 72 72 S 14 22 30.09 1019 10 16 0.00 0.00
10:57 pm 22:57 Clear 53 11.7 44 6.7 72 72 S 20 31 30.08 1019 10 16 0.00 0.00
11:57 pm 23:57 Clear 52 11.1 44 6.7 75 75 S 20 31 30.06 1018 10 16 0.00 0.00

Powered by AerisWeather